No particular awareness of the weather is required.    There are no Weather-warnings


Meteo18 Weather Cam more information Meteo18 Weather Cam


Thunder radar more information blitzortung!


Rain radar more information rain snow radar


Visit our other weather sites:

Template documentation
and downloads

And another site



Weather Underground History page Text

Daily Summary for February 10, 2018 Units:  English    Metric   Both
« Previous Day
Next Day »
Daily Weekly Monthly Yearly Custom
  High: Low: Average:
Temperature: TemperatureC °F -3.4 °F 0.4 °F
Dew Point: DewpointC °F -4.1 °F -1.2 °F
Humidity: Humidity % 78 % 89 %
Wind Speed: WindSpeedKMH mph 0.0 mph 4.1 mph
Wind Gust: WindSpeedGustKMH mph - -
Wind:- - WSW
Pressure: PressurehPa in 1016.1 in -
Precipitation: 6.1 in    
Historical Graphs
 
 
Tabular Data for February 10, 2018
Time Temperature Dew Point Pressure Wind Wind Speed Wind Gust Humidity Rainfall Rate (Hourly)
TemperatureC °F DewpointC °F PressurehPa in Calm     Humidity % HourlyPrecipMM in
00:01 0.5 °F -0.4 °F 1018.2 in WNW 7.9 mph 12.9 mph 94 % 0.0 in
00:07 0.4 °F -0.5 °F 1018.2 in NNW 3.2 mph 9.7 mph 94 % 0.0 in
00:13 0.4 °F -0.5 °F 1018.2 in WSW 1.4 mph 4.8 mph 94 % 0.0 in
00:19 0.5 °F -0.4 °F 1018.2 in WNW 3.2 mph 8.0 mph 94 % 0.0 in
00:25 0.6 °F -0.3 °F 1018.2 in West 3.2 mph 8.0 mph 94 % 0.0 in
00:31 0.7 °F -0.2 °F 1018.2 in WNW 7.9 mph 11.3 mph 94 % 0.3 in
00:37 0.7 °F -0.3 °F 1018.2 in WNW 9.7 mph 9.7 mph 93 % 0.3 in
00:43 0.7 °F -0.3 °F 1018.5 in NW 4.7 mph 14.5 mph 93 % 0.3 in
00:49 0.7 °F -0.3 °F 1018.5 in NNW 6.4 mph 12.9 mph 93 % 0.3 in
00:55 0.7 °F -0.3 °F 1018.5 in NW 7.9 mph 11.3 mph 93 % 0.3 in
01:01 0.7 °F -0.3 °F 1018.5 in NW 1.4 mph 16.1 mph 93 % 0.3 in
01:07 0.8 °F -0.4 °F 1018.5 in West 1.4 mph 8.0 mph 92 % 0.3 in
01:13 0.7 °F -0.5 °F 1018.5 in WNW 3.2 mph 9.7 mph 92 % 0.3 in
01:19 0.8 °F -0.4 °F 1018.8 in NW 1.4 mph 11.3 mph 92 % 0.3 in
01:25 0.8 °F -0.4 °F 1018.8 in Calm   8.0 mph 92 % 0.3 in
01:31 0.8 °F -0.4 °F 1018.8 in WNW 6.4 mph 9.7 mph 92 % 0.0 in
01:37 0.8 °F -0.4 °F 1018.8 in NW 1.4 mph 6.4 mph 92 % 0.0 in
01:43 0.9 °F -0.3 °F 1018.8 in WNW 3.2 mph 12.9 mph 92 % 0.0 in
01:49 0.9 °F -0.3 °F 1018.8 in WNW 14.3 mph 14.5 mph 92 % 0.0 in
01:55 0.9 °F -0.4 °F 1018.8 in NW 6.4 mph 12.9 mph 91 % 0.0 in
02:01 0.8 °F -0.4 °F 1018.8 in West 4.7 mph 17.7 mph 92 % 0.0 in
02:07 0.8 °F -0.4 °F 1018.8 in NW 17.7 mph 17.7 mph 92 % 0.0 in
02:13 0.8 °F -0.4 °F 1018.8 in WSW 3.2 mph 11.3 mph 92 % 0.0 in
02:19 0.8 °F -0.4 °F 1018.8 in WNW 7.9 mph 16.1 mph 92 % 0.0 in
02:25 0.8 °F -0.5 °F 1018.8 in WNW 11.1 mph 14.5 mph 91 % 0.0 in
02:31 0.8 °F -0.5 °F 1018.8 in WNW 9.7 mph 16.1 mph 91 % 0.0 in
02:37 0.7 °F -0.6 °F 1018.8 in NNW 6.4 mph 14.5 mph 91 % 0.0 in
02:43 0.6 °F -0.7 °F 1019.2 in NW 3.2 mph 12.9 mph 91 % 0.0 in
02:49 0.4 °F -0.7 °F 1019.2 in WNW 11.1 mph 12.9 mph 92 % 0.0 in
02:55 0.3 °F -0.8 °F 1019.2 in NW 6.4 mph 14.5 mph 92 % 0.0 in
03:01 0.2 °F -0.9 °F 1019.2 in WNW 6.4 mph 14.5 mph 92 % 0.0 in
03:07 0.2 °F -0.9 °F 1019.2 in WNW 3.2 mph 14.5 mph 92 % 0.0 in
03:13 0.1 °F -1.0 °F 1019.2 in WNW 3.2 mph 14.5 mph 92 % 0.0 in
03:19 0.1 °F -1.0 °F 1019.2 in WNW 4.7 mph 11.3 mph 92 % 0.0 in
03:25 0.1 °F -1.0 °F 1019.2 in WNW 11.1 mph 14.5 mph 92 % 0.0 in
03:31 0.2 °F -0.9 °F 1019.2 in WNW 4.7 mph 11.3 mph 92 % 0.0 in
03:37 0.2 °F -0.9 °F 1019.2 in NW 4.7 mph 11.3 mph 92 % 0.0 in
03:43 0.1 °F -1.0 °F 1019.2 in WNW 4.7 mph 9.7 mph 92 % 0.0 in
03:50 0.0 °F -1.1 °F 1019.2 in Calm   8.0 mph 92 % 0.0 in
03:56 -0.1 °F -1.2 °F 1019.2 in WNW 4.7 mph 8.0 mph 92 % 0.0 in
04:02 -0.1 °F -1.1 °F 1019.2 in NW 4.7 mph 9.7 mph 93 % 0.0 in
04:08 -0.2 °F -1.3 °F 1019.2 in NW 4.7 mph 9.7 mph 92 % 0.0 in
04:14 -0.2 °F -1.3 °F 1019.5 in WNW 4.7 mph 8.0 mph 92 % 0.0 in
04:20 -0.2 °F -1.3 °F 1019.2 in WNW 1.4 mph 4.8 mph 92 % 0.0 in
04:26 -0.3 °F -1.3 °F 1019.2 in WNW 3.2 mph 6.4 mph 93 % 0.0 in
04:32 -0.3 °F -1.4 °F 1019.2 in Calm   3.2 mph 92 % 0.0 in
04:38 -0.3 °F -1.4 °F 1019.5 in North 11.1 mph 11.3 mph 92 % 0.0 in
04:44 -0.4 °F -1.5 °F 1019.5 in NW 9.7 mph 11.3 mph 92 % 0.0 in
04:50 -0.4 °F -1.5 °F 1019.5 in West 3.2 mph 8.0 mph 92 % 0.0 in
04:56 -0.4 °F -1.5 °F 1019.5 in Calm   9.7 mph 92 % 0.0 in
05:02 -0.5 °F -1.6 °F 1019.5 in WNW 3.2 mph 11.3 mph 92 % 0.0 in
05:08 -0.5 °F -1.6 °F 1019.5 in WNW 3.2 mph 6.4 mph 92 % 0.0 in
05:14 -0.7 °F -2.0 °F 1019.5 in West 1.4 mph 3.2 mph 91 % 0.0 in
05:20 -0.6 °F -1.7 °F 1019.5 in West 3.2 mph 3.2 mph 92 % 0.0 in
05:26 -0.8 °F -1.9 °F 1019.5 in WNW 1.4 mph 8.0 mph 92 % 0.0 in
05:32 -0.9 °F -2.2 °F 1019.5 in WNW 1.4 mph 6.4 mph 91 % 0.0 in
05:38 -1.0 °F -2.1 °F 1019.5 in WNW 3.2 mph 8.0 mph 92 % 0.0 in
05:44 -1.0 °F -2.1 °F 1019.9 in West 3.2 mph 8.0 mph 92 % 0.0 in
05:50 -0.9 °F -2.2 °F 1019.9 in West 1.4 mph 4.8 mph 91 % 0.0 in
05:56 -1.0 °F -2.3 °F 1019.9 in WNW 1.4 mph 3.2 mph 91 % 0.0 in
06:02 -1.2 °F -2.5 °F 1019.9 in WNW 3.2 mph 4.8 mph 91 % 0.0 in
06:08 -1.3 °F -2.4 °F 1019.9 in WNW 3.2 mph 9.7 mph 92 % 0.0 in
06:14 -1.2 °F -2.3 °F 1019.9 in WNW 3.2 mph 3.2 mph 92 % 0.0 in
06:20 -1.2 °F -2.3 °F 1019.9 in NW 3.2 mph 3.2 mph 92 % 0.0 in
06:26 -1.3 °F -2.4 °F 1019.9 in WNW 3.2 mph 4.8 mph 92 % 0.0 in
06:32 -1.3 °F -2.4 °F 1019.9 in NW 1.4 mph 3.2 mph 92 % 0.0 in
06:38 -1.3 °F -2.4 °F 1020.2 in NNW 1.4 mph 4.8 mph 92 % 0.0 in
06:44 -1.4 °F -2.5 °F 1020.2 in Calm   3.2 mph 92 % 0.0 in
06:50 -1.6 °F -2.9 °F 1020.2 in West 1.4 mph 4.8 mph 91 % 0.0 in
06:56 -1.7 °F -2.8 °F 1020.2 in Calm   3.2 mph 92 % 0.0 in
07:02 -1.9 °F -3.2 °F 1020.5 in Calm     91 % 0.0 in
07:08 -2.4 °F -3.7 °F 1020.5 in SE 1.4 mph 1.6 mph 91 % 0.0 in
07:14 -2.6 °F -3.7 °F 1020.5 in Calm   1.6 mph 92 % 0.0 in
07:20 -2.8 °F -3.8 °F 1020.5 in Calm   1.6 mph 93 % 0.0 in
07:26 -3.0 °F -4.0 °F 1020.5 in Calm     93 % 0.0 in
07:32 -3.1 °F -3.9 °F 1020.5 in Calm     94 % 0.0 in
07:38 -3.0 °F -3.8 °F 1020.5 in Calm     94 % 0.0 in
07:44 -2.8 °F -3.5 °F 1020.5 in Calm     95 % 0.0 in
07:50 -2.9 °F -3.6 °F 1020.9 in Calm     95 % 0.0 in
07:56 -3.1 °F -3.9 °F 1020.9 in Calm     94 % 0.0 in
08:02 -3.1 °F -3.8 °F 1020.9 in Calm     95 % 0.0 in
08:08 -3.3 °F -4.0 °F 1020.9 in Calm     95 % 0.0 in
08:14 -3.4 °F -4.1 °F 1021.2 in Calm   1.6 mph 95 % 0.0 in
08:20 -3.3 °F -4.0 °F 1021.2 in Calm   1.6 mph 95 % 0.0 in
08:26 -3.3 °F -4.0 °F 1021.2 in Calm     95 % 0.0 in
08:32 -3.4 °F -4.1 °F 1021.2 in Calm     95 % 0.0 in
08:38 -3.3 °F -4.0 °F 1021.6 in Calm     95 % 0.0 in
08:44 -3.2 °F -3.9 °F 1021.2 in Calm     95 % 0.0 in
08:50 -3.1 °F -3.8 °F 1021.2 in Calm     95 % 0.0 in
08:56 -3.1 °F -3.8 °F 1021.6 in Calm     95 % 0.0 in
09:02 -2.8 °F -3.5 °F 1021.6 in Calm     95 % 0.0 in
09:08 -2.9 °F -3.7 °F 1021.6 in Calm     94 % 0.0 in
09:14 -2.6 °F -3.3 °F 1021.6 in Calm     95 % 0.0 in
09:20 -2.2 °F -3.0 °F 1021.6 in Calm     94 % 0.0 in
09:26 -2.2 °F -3.3 °F 1021.6 in Calm     92 % 0.0 in
09:32 -2.1 °F -3.1 °F 1021.9 in Calm   1.6 mph 93 % 0.0 in
09:38 -2.2 °F -3.6 °F 1021.9 in SE 1.4 mph 1.6 mph 90 % 0.0 in
09:46 -2.5 °F -3.9 °F 1021.9 in Calm   1.6 mph 90 % 0.0 in
09:52 -2.5 °F -3.9 °F 1021.9 in Calm   1.6 mph 90 % 0.0 in
09:58 -2.2 °F -3.5 °F 1022.2 in Calm     91 % 0.0 in
10:04 -1.5 °F -2.8 °F 1022.2 in South 1.4 mph 1.6 mph 91 % 0.0 in
10:10 -1.3 °F -2.9 °F 1021.9 in Calm     89 % 0.0 in
10:17 -0.9 °F -2.6 °F 1021.9 in Calm   1.6 mph 88 % 0.0 in
10:23 -0.5 °F -2.4 °F 1021.9 in Calm     87 % 0.0 in
10:29 0.2 °F -1.7 °F 1021.9 in Calm     87 % 0.0 in
10:35 -0.1 °F -2.6 °F 1021.9 in Calm   1.6 mph 83 % 0.0 in
10:41 -0.1 °F -2.2 °F 1021.9 in Calm   1.6 mph 86 % 0.0 in
10:47 0.2 °F -2.0 °F 1021.9 in Calm     85 % 0.0 in
10:53 0.4 °F -2.0 °F 1021.9 in Calm     84 % 0.0 in
10:59 0.1 °F -2.4 °F 1021.9 in SE 1.4 mph 1.6 mph 83 % 0.0 in
11:05 0.2 °F -2.0 °F 1021.9 in ESE 1.4 mph 1.6 mph 85 % 0.0 in
11:11 -0.4 °F -2.8 °F 1021.9 in SE 1.4 mph 3.2 mph 84 % 0.0 in
11:17 -0.1 °F -1.8 °F 1021.9 in Calm   3.2 mph 88 % 0.0 in
11:23 0.2 °F -1.7 °F 1021.9 in Calm   1.6 mph 87 % 0.0 in
11:29 0.5 °F -1.6 °F 1021.9 in SW 3.2 mph 3.2 mph 86 % 0.3 in
11:35 0.4 °F -1.5 °F 1021.9 in Calm   3.2 mph 87 % 0.3 in
11:41 0.6 °F -1.3 °F 1021.9 in Calm   1.6 mph 87 % 0.3 in
11:47 0.8 °F -1.1 °F 1021.9 in Calm   1.6 mph 87 % 0.3 in
11:53 1.1 °F -0.8 °F 1021.9 in SE 1.4 mph 1.6 mph 87 % 0.3 in
11:59 1.2 °F -0.9 °F 1021.9 in Calm   3.2 mph 86 % 0.5 in
12:05 1.2 °F -1.0 °F 1021.9 in SW 4.7 mph 4.8 mph 85 % 0.5 in
12:11 0.7 °F -1.4 °F 1021.6 in SSW 4.7 mph 4.8 mph 86 % 0.5 in
12:17 0.7 °F -1.1 °F 1021.6 in SSW 4.7 mph 6.4 mph 88 % 0.5 in
12:23 0.7 °F -1.1 °F 1021.6 in SW 4.7 mph 6.4 mph 88 % 0.5 in
12:29 0.6 °F -1.2 °F 1021.6 in SSW 4.7 mph 8.0 mph 88 % 0.5 in
12:35 0.4 °F -1.2 °F 1021.6 in SW 7.9 mph 9.7 mph 89 % 0.5 in
12:41 0.4 °F -1.0 °F 1021.6 in SSW 4.7 mph 8.0 mph 90 % 0.5 in
12:47 0.6 °F -0.9 °F 1021.6 in SSW 7.9 mph 8.0 mph 90 % 0.5 in
12:53 0.7 °F -0.9 °F 1021.6 in SSW 3.2 mph 8.0 mph 89 % 0.8 in
12:59 0.8 °F -0.8 °F 1021.6 in SSW 4.7 mph 8.0 mph 89 % 0.5 in
13:05 0.9 °F -0.6 °F 1021.6 in SSW 4.7 mph 9.7 mph 90 % 0.5 in
13:11 0.9 °F -0.6 °F 1021.6 in South 6.4 mph 9.7 mph 90 % 0.8 in
13:17 0.9 °F -0.6 °F 1021.6 in SSW 7.9 mph 11.3 mph 90 % 0.5 in
13:23 1.2 °F -0.3 °F 1021.2 in SSW 7.9 mph 11.3 mph 90 % 0.8 in
13:29 1.3 °F -0.2 °F 1021.2 in South 9.7 mph 11.3 mph 90 % 0.8 in
13:35 1.3 °F -0.2 °F 1021.2 in SW 7.9 mph 11.3 mph 90 % 0.5 in
13:41 1.3 °F -0.2 °F 1021.2 in SSW 9.7 mph 11.3 mph 90 % 0.8 in
13:47 1.4 °F -0.1 °F 1021.2 in SW 13.0 mph 14.5 mph 90 % 0.8 in
13:53 1.4 °F -0.1 °F 1020.9 in South 7.9 mph 11.3 mph 90 % 0.8 in
13:59 1.6 °F 0.3 °F 1020.9 in SW 4.7 mph 9.7 mph 91 % 1.0 in
14:06 1.8 °F 0.2 °F 1020.9 in SW 7.9 mph 9.7 mph 89 % 1.0 in
14:12 1.8 °F 0.2 °F 1020.9 in SSW 9.7 mph 12.9 mph 89 % 1.0 in
14:17 1.8 °F 0.3 °F 1020.9 in SSW 6.4 mph 9.7 mph 90 % 1.3 in
14:24 2.0 °F 0.4 °F 1020.5 in SSW 9.7 mph 11.3 mph 89 % 1.0 in
14:30 2.1 °F 0.5 °F 1020.5 in SSW 9.7 mph 14.5 mph 89 % 1.3 in
14:36 2.2 °F 0.4 °F 1020.5 in SSW 9.7 mph 11.3 mph 88 % 1.5 in
14:42 2.3 °F 0.5 °F 1020.9 in SW 9.7 mph 9.7 mph 88 % 1.3 in
14:48 2.6 °F 0.7 °F 1020.5 in SW 6.4 mph 9.7 mph 87 % 1.3 in
14:54 2.6 °F 0.7 °F 1020.5 in SSW 9.7 mph 12.9 mph 87 % 1.5 in
15:00 2.8 °F 0.7 °F 1020.5 in SW 6.4 mph 11.3 mph 86 % 1.3 in
15:06 2.9 °F 0.8 °F 1020.5 in SW 7.9 mph 11.3 mph 86 % 1.5 in
15:12 2.8 °F 0.5 °F 1020.5 in SSW 6.4 mph 12.9 mph 85 % 1.5 in
15:18 2.8 °F 0.5 °F 1020.5 in SW 9.7 mph 14.5 mph 85 % 1.5 in
15:24 3.1 °F 1.1 °F 1020.5 in WSW 9.7 mph 11.3 mph 87 % 1.5 in
15:30 3.2 °F 0.9 °F 1020.2 in SW 11.1 mph 12.9 mph 85 % 1.5 in
15:36 3.1 °F 0.7 °F 1020.2 in SW 7.9 mph 11.3 mph 84 % 1.5 in
15:42 3.1 °F 0.7 °F 1020.2 in SW 7.9 mph 11.3 mph 84 % 1.5 in
15:48 3.2 °F 0.6 °F 1020.2 in SW 11.1 mph 14.5 mph 83 % 1.5 in
15:54 3.2 °F 0.8 °F 1020.2 in SW 11.1 mph 12.9 mph 84 % 1.5 in
16:00 3.3 °F 0.9 °F 1020.2 in South 3.2 mph 9.7 mph 84 % 1.5 in
16:06 3.4 °F 1.0 °F 1019.9 in WSW 3.2 mph 6.4 mph 84 % 1.5 in
16:12 3.4 °F 0.8 °F 1019.9 in WNW 9.7 mph 9.7 mph 83 % 1.5 in
16:18 3.3 °F 0.7 °F 1019.9 in West 1.4 mph 8.0 mph 83 % 1.5 in
16:24 3.2 °F 0.6 °F 1019.9 in SW 7.9 mph 12.9 mph 83 % 1.3 in
16:30 3.3 °F 0.9 °F 1019.9 in WSW 6.4 mph 9.7 mph 84 % 1.3 in
16:36 3.2 °F 0.6 °F 1019.9 in SW 3.2 mph 8.0 mph 83 % 1.0 in
16:42 3.1 °F 0.5 °F 1019.9 in West 7.9 mph 8.0 mph 83 % 1.3 in
16:48 3.2 °F 0.4 °F 1019.9 in WSW 3.2 mph 6.4 mph 82 % 1.0 in
16:54 3.3 °F 0.4 °F 1019.9 in WSW 4.7 mph 8.0 mph 81 % 0.8 in
17:00 3.4 °F 0.3 °F 1019.9 in WSW 4.7 mph 8.0 mph 80 % 0.8 in
17:06 3.4 °F 0.1 °F 1019.9 in West 3.2 mph 6.4 mph 79 % 0.8 in
17:12 3.4 °F 0.1 °F 1019.9 in West 3.2 mph 4.8 mph 79 % 0.5 in
17:18 3.4 °F 0.1 °F 1019.9 in West 1.4 mph 9.7 mph 79 % 0.5 in
17:24 3.3 °F -0.2 °F 1019.9 in WSW 6.4 mph 9.7 mph 78 % 0.8 in
17:30 3.3 °F -0.2 °F 1019.9 in SW 4.7 mph 4.8 mph 78 % 0.5 in
17:36 3.1 °F -0.2 °F 1019.9 in Calm   3.2 mph 79 % 0.5 in
17:42 2.8 °F -0.5 °F 1019.9 in SW 4.7 mph 9.7 mph 79 % 0.5 in
17:48 2.6 °F -0.5 °F 1019.9 in WSW 1.4 mph 6.4 mph 80 % 0.5 in
17:54 2.4 °F -0.7 °F 1019.9 in WSW 6.4 mph 6.4 mph 80 % 0.5 in
18:00 2.3 °F -0.6 °F 1019.9 in WSW 1.4 mph 3.2 mph 81 % 0.3 in
18:06 2.2 °F -0.6 °F 1019.9 in SW 3.2 mph 4.8 mph 82 % 0.3 in
18:12 2.1 °F -0.7 °F 1019.9 in SW 4.7 mph 8.0 mph 82 % 0.3 in
18:18 2.1 °F -0.7 °F 1019.5 in SW 4.7 mph 4.8 mph 82 % 0.3 in
18:24 2.0 °F -0.7 °F 1019.5 in SW 3.2 mph 6.4 mph 82 % 0.0 in
18:30 1.7 °F -0.9 °F 1019.5 in SSW 3.2 mph 8.0 mph 83 % 0.0 in
18:36 1.2 °F -1.0 °F 1019.2 in SSW 1.4 mph 3.2 mph 85 % 0.0 in
18:42 0.9 °F -1.0 °F 1019.2 in SW 3.2 mph 4.8 mph 87 % 0.0 in
18:48 0.7 °F -1.1 °F 1019.2 in SSW 3.2 mph 4.8 mph 88 % 0.0 in
18:54 0.5 °F -1.1 °F 1019.2 in SSW 1.4 mph 3.2 mph 89 % 0.0 in
19:00 0.4 °F -1.0 °F 1019.2 in SSW 3.2 mph 3.2 mph 90 % 0.0 in
19:06 0.3 °F -1.1 °F 1019.2 in SSW 3.2 mph 3.2 mph 90 % 0.0 in
19:12 0.5 °F -0.8 °F 1019.5 in SW 3.2 mph 8.0 mph 91 % 0.0 in
19:18 0.9 °F -0.7 °F 1019.5 in SW 7.9 mph 8.0 mph 89 % 0.0 in
19:24 1.1 °F -0.7 °F 1019.5 in SW 6.4 mph 8.0 mph 88 % 0.0 in
19:30 0.9 °F -0.9 °F 1019.2 in SSW 4.7 mph 6.4 mph 88 % 0.0 in
19:36 0.7 °F -0.9 °F 1019.5 in SSW 3.2 mph 6.4 mph 89 % 0.0 in
19:42 0.6 °F -1.0 °F 1019.5 in South 3.2 mph 3.2 mph 89 % 0.0 in
19:48 0.2 °F -1.2 °F 1019.2 in South 1.4 mph 1.6 mph 90 % 0.0 in
19:54 0.1 °F -1.3 °F 1019.2 in South 1.4 mph 3.2 mph 90 % 0.0 in
20:00 0.0 °F -1.3 °F 1019.2 in SSW 1.4 mph 1.6 mph 91 % 0.0 in
20:06 -0.2 °F -1.5 °F 1019.2 in SSW 3.2 mph 3.2 mph 91 % 0.0 in
20:12 -0.1 °F -1.2 °F 1019.2 in SW 4.7 mph 4.8 mph 92 % 0.0 in
20:18 0.0 °F -1.1 °F 1019.2 in SSW 4.7 mph 6.4 mph 92 % 0.0 in
20:24 0.1 °F -1.0 °F 1018.8 in SSW 3.2 mph 8.0 mph 92 % 0.0 in
20:30 0.1 °F -1.2 °F 1018.8 in SSW 3.2 mph 4.8 mph 91 % 0.0 in
20:36 -0.1 °F -1.4 °F 1018.8 in SSW 1.4 mph 6.4 mph 91 % 0.0 in
20:42 -0.1 °F -1.2 °F 1018.8 in SSW 3.2 mph 4.8 mph 92 % 0.0 in
20:48 -0.1 °F -1.2 °F 1018.8 in SW 3.2 mph 4.8 mph 92 % 0.0 in
20:54 -0.1 °F -1.2 °F 1018.8 in SSW 4.7 mph 4.8 mph 92 % 0.0 in
21:00 0.1 °F -1.0 °F 1018.8 in SSW 3.2 mph 6.4 mph 92 % 0.0 in
21:06 0.1 °F -1.2 °F 1018.5 in South 1.4 mph 1.6 mph 91 % 0.0 in
21:12 0.2 °F -0.9 °F 1018.5 in SSW 1.4 mph 3.2 mph 92 % 0.0 in
21:18 0.3 °F -1.0 °F 1018.5 in South 1.4 mph 6.4 mph 91 % 0.0 in
21:24 0.3 °F -1.0 °F 1018.5 in SSW 1.4 mph 4.8 mph 91 % 0.0 in
21:30 0.4 °F -0.9 °F 1018.5 in SSW 3.2 mph 6.4 mph 91 % 0.0 in
21:36 0.4 °F -0.9 °F 1018.2 in SSW 6.4 mph 6.4 mph 91 % 0.0 in
21:42 0.4 °F -0.9 °F 1018.2 in South 4.7 mph 8.0 mph 91 % 0.0 in
21:48 0.5 °F -0.8 °F 1018.2 in SSW 11.1 mph 11.3 mph 91 % 0.0 in
21:54 0.6 °F -0.9 °F 1017.8 in SSW 6.4 mph 12.9 mph 90 % 0.0 in
22:00 0.6 °F -0.9 °F 1017.8 in SSW 3.2 mph 6.4 mph 90 % 0.0 in
22:06 0.4 °F -0.9 °F 1017.8 in SSE 1.4 mph 4.8 mph 91 % 0.0 in
22:12 0.4 °F -0.9 °F 1017.5 in Calm   1.6 mph 91 % 0.0 in
22:20 0.5 °F -0.8 °F 1017.5 in South 3.2 mph 4.8 mph 91 % 0.0 in
22:26 0.6 °F -0.7 °F 1017.2 in SSW 4.7 mph 8.0 mph 91 % 0.0 in
22:32 0.7 °F -0.8 °F 1017.2 in SW 11.1 mph 11.3 mph 90 % 0.0 in
22:38 0.8 °F -0.8 °F 1017.2 in SSW 9.7 mph 12.9 mph 89 % 0.0 in
22:44 0.8 °F -0.8 °F 1017.2 in SW 7.9 mph 16.1 mph 89 % 0.0 in
22:50 0.9 °F -0.9 °F 1017.2 in SW 9.7 mph 14.5 mph 88 % 0.0 in
22:56 0.9 °F -0.7 °F 1017.2 in SW 9.7 mph 14.5 mph 89 % 0.0 in
23:02 0.8 °F -0.8 °F 1017.2 in SW 7.9 mph 11.3 mph 89 % 0.0 in
23:08 0.9 °F -0.7 °F 1017.2 in SSW 7.9 mph 9.7 mph 89 % 0.0 in
23:14 0.9 °F -0.7 °F 1017.2 in SSW 4.7 mph 11.3 mph 89 % 0.0 in
23:20 0.8 °F -0.7 °F 1017.2 in SW 6.4 mph 9.7 mph 90 % 0.0 in
23:26 0.8 °F -0.7 °F 1016.8 in SSW 6.4 mph 9.7 mph 90 % 0.0 in
23:32 0.7 °F -0.6 °F 1016.8 in SSE 1.4 mph 6.4 mph 91 % 0.0 in
23:39 0.6 °F -0.7 °F 1016.5 in SSW 11.1 mph 11.3 mph 91 % 0.0 in
23:45 0.7 °F -0.5 °F 1016.5 in SSW 7.9 mph 11.3 mph 92 % 0.0 in
23:51 0.8 °F -0.4 °F 1016.5 in SW 9.7 mph 16.1 mph 92 % 0.0 in
23:57 0.7 °F -0.5 °F 1016.1 in SW 11.1 mph 16.1 mph 92 % 0.0 in
Meteo18
Compliments of Weather Underground - 4 mb

Script developed by  Jim McMurry - jmcmurry@mwt.net Adapted for the template by  Wim van der Kuil - Leuven-Template.eu

You find our weather info also at:

European Weather Network

Weather Underground

Equipment we use:

Weather-station
Davis Vue

Weather-program
Meteobridge

Weather-server
Raspberry PI 2 B+

Provider
1 and 1

Davis Vue

Meteobridge

Raspberry PI 2 B+

1 and 1